#timestamp,LO_Frequency,Hit,StdDev 
1543122015.2,286047002.5,P
1543122035.0,286047002.5,P
1543122035.9,286047002.5,Y
1543122055.8,286046996.5,P
1543122075.6,286046996.6,N
1543122095.5,286046999.0,N
1543122115.3,286046999.6,N
1543122135.1,286046998.4,N
1543122155.9,286046998.1,N
1543122175.7,286047000.5,N
1543122195.6,286047000.2,N
1543122215.4,286047001.4,N
1543122235.2,286047005.9,Y
1543122255.1,286047005.8,P
1543122256.0,286047005.8,N
1543122275.8,286047005.5,N
1543122295.6,286047005.9,N
1543122315.5,286047005.4,N
1543122335.3,286047005.5,N
1543122355.2,286047005.0,N
1543122375.9,286047005.0,N
1543122395.7,286047006.4,Y
1543122415.6,286047003.2,P
1543122435.4,286047003.3,P
1543122455.3,286047003.1,P
1543122475.1,286047004.4,Y
1543122476.0,286047004.4,P
1543122495.8,286046998.1,P
1543122515.7,286046998.8,N
1543122535.5,286046999.4,N
1543122555.3,286046998.5,N
1543122575.2,286046999.9,N
1543122595.0,286047002.3,N
1543122595.9,286047002.3,N
1543122615.8,286047002.2,N
1543122635.6,286047004.3,N
1543122655.4,286047000.0,N
1543122675.3,286047000.3,N
1543122695.1,286047000.1,N
1543122715.9,286047002.1,N
1543122735.7,286047002.7,N
1543122755.5,286047002.2,N
1543122775.4,286047003.5,N
1543122795.2,286047004.2,N
1543122815.0,286047005.7,N
1543122815.9,286047005.7,N
1543122835.8,286047002.9,N
1543122855.6,286047004.5,N
1543122875.5,286047009.0,Y
1543122895.3,286047004.9,P
1543122915.1,286047004.5,P
1543122935.9,286047005.1,P
1543122955.7,286047005.4,Y
1543122975.6,286047000.4,P
1543122995.4,286046998.1,N
1543123015.2,286046999.9,N
1543123035.1,286047002.0,N
1543123036.0,286047002.0,N
1543123055.8,286047001.4,N
1543123075.7,286047001.3,N
1543123095.5,286047003.3,N
1543123115.3,286047004.1,N
1543123135.2,286047002.9,N
1543123155.9,286047005.4,Y
1543123175.7,286047004.3,P
1543123195.6,286047002.1,N
1543123215.4,286047003.9,P
1543123235.3,286047005.7,Y
1543123255.1,286047001.8,P
1543123256.0,286047001.8,N
1543123275.8,286047001.7,N
1543123295.7,286047002.3,Y
1543123315.5,286047000.5,P
1543123335.4,286047000.2,N
1543123355.2,286047000.9,N
1543123375.0,286047000.3,N
1543123375.9,286047000.3,N
1543123395.8,286047001.4,N
1543123415.6,286047001.9,N
1543123435.5,286047002.2,Y
1543123455.3,286047003.9,P
1543123475.1,286047001.5,N
1543123495.9,286047003.5,N
1543123515.7,286047003.2,N
1543123535.5,286047001.3,N
1543123555.4,286047003.3,N
1543123575.2,286047004.1,Y
1543123595.1,286047002.4,P
1543123596.0,286047002.4,P
1543123615.8,286046999.8,P
1543123635.6,286047001.7,N
1543123655.5,286047002.6,N
1543123675.3,286047004.0,Y
1543123695.2,286047002.7,P
1543123715.9,286047001.8,P
1543123735.7,286047002.2,P
1543123755.6,286047002.7,Y
1543123775.4,286047000.8,P
1543123795.2,286047001.2,N
1543123815.1,286047000.8,N
1543123816.0,286047000.8,N
1543123835.8,286047000.9,N
1543123855.7,286047002.7,Y
1543123875.5,286047000.5,P
1543123895.3,286047000.5,N
1543123915.2,286046999.8,N
1543123935.0,286047002.8,Y
1543123935.9,286047002.8,P
1543123955.8,286047002.7,N
1543123975.6,286047001.0,N
1543123995.4,286046998.4,N
1543124015.3,286047001.2,N
1543124035.1,286047000.7,N
1543124055.8,286046998.2,N
1543124075.7,286047001.0,N
1543124095.5,286047002.8,N
1543124115.4,286047002.4,N
1543124135.2,286047001.4,N
1543124155.0,286047001.4,N
1543124155.9,286047001.4,N
1543124175.8,286047002.1,N
1543124195.6,286047002.0,N
1543124215.4,286047003.1,N
1543124235.3,286047002.5,N
1543124255.1,286047002.6,N
1543124275.9,286047011.9,Y
1543124295.7,286047002.6,P
1543124315.5,286047001.9,P
1543124335.4,286047002.8,P
1543124355.2,286047002.7,Y
1543124375.0,286046999.8,P
1543124376.0,286046999.8,N
1543124395.8,286046999.9,N
1543124415.6,286047000.6,N
1543124435.5,286047000.1,N
1543124455.3,286047000.6,N
1543124475.1,286046998.2,N
1543124495.9,286047000.9,N
1543124515.7,286047000.4,N
1543124535.6,286047000.2,N
1543124555.4,286046999.7,N
1543124575.2,286047000.6,N
1543124595.1,286047000.0,N
1543124596.0,286047000.0,N
1543124615.8,286046998.5,N
1543124635.6,286046998.8,N
1543124655.5,286047000.8,N
1543124675.3,286046998.2,N
1543124695.2,286047000.7,N
1543124715.9,286047000.6,N
1543124735.7,286047000.6,N
1543124755.6,286047000.5,N
1543124775.4,286046999.9,N
1543124795.3,286046998.1,N
1543124815.1,286046998.8,N
1543124816.0,286046998.8,N
1543124835.8,286046999.5,N
1543124855.7,286046998.8,N
1543124875.5,286046998.5,N
1543124895.3,286046999.3,N
1543124915.2,286046999.1,N
1543124935.0,286046996.5,Y
1543124935.9,286046996.5,P
1543124955.8,286046998.3,N
1543124975.6,286046998.5,N
1543124995.4,286046998.9,N
1543125015.3,286047000.8,N
1543125035.1,286046998.7,N
1543125055.9,286046999.4,N
1543125075.7,286046998.4,N
1543125095.5,286046998.7,N
1543125115.4,286047000.0,N
1543125135.2,286047001.6,N
1543125155.0,286047000.3,N
1543125155.9,286047000.3,N
1543125175.8,286046998.5,N
1543125195.6,286047001.2,N
1543125215.5,286046999.2,N
1543125235.3,286046996.9,N
1543125255.1,286046998.9,N
1543125275.9,286046996.5,N
1543125295.7,286046997.0,N
1543125315.5,286046997.8,N
1543125335.4,286046995.1,Y
1543125355.2,286046997.1,P
1543125375.1,286046997.4,N
1543125376.0,286046997.4,P
1543125395.8,286046995.4,Y
1543125415.6,286046998.2,P
1543125435.5,286046998.3,P
1543125455.3,286047000.2,N
1543125475.2,286047000.1,N
1543125495.9,286047000.0,N
1543125515.7,286046998.6,N
1543125535.6,286046999.1,N
1543125555.4,286046996.8,Y
1543125575.3,286046999.1,P
1543125595.1,286046998.1,P
1543125596.0,286046998.1,P
